Home   Weather   Dessau-Rosslau   Past weeks

Flag for Germany Past Weather in Dessau-Rosslau, Saxony-Anhalt, Germany — Yesterday and Last 2 Weeks

Now
45 °F

Partly cloudy.


Feels Like: 34 °F
Forecast: 34 / 43 °F
Wind: 35 mph from West

Location: Leipzig-Schkeuditz

Current Time: Feb 24, 2017 at 12:50:04 am

Latest Report: Feb 24, 2017 at 12:20 am


Visibility: N/A

Pressure: 29.24 "Hg

Humidity: 71%

Dew Point: 36 °F

Location of Dessau-RosslauLocation

Past Weather in Dessau-Rosslau — Graph

°F

Dessau-Rosslau Temperature Yesterday

Maximum temperature yesterday: 50 °F (at 10:50 am)
Minimum temperature yesterday: 43 °F (at 12:20 am)
Average temperature yesterday: 47 °F

High & Low Weather Summary for the Past Weeks

 TemperatureHumidityPressure
High54 °F (Feb 16, 12:50 pm)100% (Feb 11, 10:20 am)30.57 "Hg (Feb 11, 10:20 am)
Low21 °F (Feb 9, 3:50 am)43% (Feb 15, 3:20 pm)29.21 "Hg (Feb 23, 10:20 pm)
Average37 °F82%30.19 "Hg
* Reported Feb 8 11:20 pm — Feb 23 11:50 pm, Dessau-Rosslau, Weather by CustomWeather, © 2017

Note: Actual official high and low records may vary slightly from our data, if they occured in-between our weather recording intervals... More about our weather records

Advertising

Dessau-Rosslau Weather History for the Previous 24 Hours

Scroll right to see more
 ConditionsComfort  
Time TempWeatherWind HumidityBarometerVisibility
11:50 pm
Thu, Feb 23
45 °FLight rain. Mostly cloudy.28 mph71%29.24 "HgN/A
11:20 pm46 °FClear.31 mph62%29.21 "Hg10 mi
10:50 pm46 °FClear.31 mph66%29.21 "Hg10 mi
10:20 pm46 °FPassing clouds.30 mph66%29.21 "HgN/A
9:50 pm46 °FPassing clouds.31 mph66%29.24 "HgN/A
9:20 pm46 °FClear.33 mph71%29.24 "Hg10 mi
8:50 pm46 °FClear.29 mph76%29.24 "Hg10 mi
8:20 pm45 °FClear.25 mph81%29.24 "Hg10 mi
7:50 pm45 °FLight rain. Passing clouds.29 mph81%29.24 "HgN/A
7:20 pm50 °FPartly cloudy.25 mph67%29.24 "HgN/A
6:50 pm50 °FPartly cloudy.25 mph67%29.24 "HgN/A
6:20 pm50 °FPartly cloudy.25 mph67%29.24 "HgN/A
5:50 pm50 °FPartly cloudy.20 mph67%29.27 "HgN/A
5:20 pm50 °FPartly sunny.22 mph67%29.27 "HgN/A
4:50 pm50 °FPartly sunny.12 mph76%29.27 "HgN/A
4:20 pm50 °FPartly sunny.8 mph76%29.30 "HgN/A
3:50 pm50 °FPartly sunny.10 mph76%29.30 "HgN/A
3:20 pm50 °FPartly sunny.15 mph76%29.36 "HgN/A
2:50 pm48 °FLight rain. Broken clouds.20 mph87%29.36 "HgN/A
2:20 pm50 °FLight rain. Partly sunny.17 mph82%29.36 "HgN/A
1:50 pm48 °FLight rain. Partly sunny.18 mph82%29.42 "HgN/A
1:20 pm48 °FPartly sunny.21 mph82%29.45 "HgN/A
12:50 pm48 °FLight rain. Partly sunny.17 mph87%29.45 "HgN/A
12:20 pm48 °FLight rain. Partly sunny.24 mph87%29.47 "HgN/A
11:50 am50 °FLight rain. Partly sunny.20 mph82%29.47 "HgN/A
11:20 am50 °FLight rain. Partly sunny.21 mph82%29.50 "HgN/A
10:50 am50 °FBroken clouds.21 mph82%29.50 "HgN/A
10:20 am48 °FPartly sunny.12 mph87%29.50 "HgN/A
9:50 am46 °FPartly sunny.12 mph93%29.53 "HgN/A
9:20 am46 °FDrizzle. Low clouds.10 mph93%29.53 "HgN/A
8:50 am45 °FDrizzle. Overcast.9 mph100%29.53 "Hg2 mi
8:20 am45 °FDrizzle. More clouds than sun.12 mph100%29.56 "Hg2 mi
7:50 am45 °FDrizzle. Mostly cloudy.12 mph100%29.56 "Hg2 mi
7:20 am45 °FDrizzle. Broken clouds.9 mph93%29.59 "Hg2 mi
6:50 am45 °FLight rain. Passing clouds.8 mph93%29.59 "HgN/A
6:20 am45 °FLight rain. Partly cloudy.9 mph93%29.59 "HgN/A
5:50 am45 °FLight rain. Partly cloudy.10 mph93%29.59 "HgN/A
5:20 am43 °FLight rain. Passing clouds.12 mph93%29.59 "HgN/A
4:50 am43 °FLight rain. Partly cloudy.13 mph93%29.59 "HgN/A
4:20 am43 °FLight rain. Partly cloudy.13 mph93%29.59 "HgN/A
3:50 am43 °FLight rain. Partly cloudy.10 mph93%29.59 "HgN/A
3:20 am43 °FLight rain. Passing clouds.12 mph93%29.59 "HgN/A
2:50 am45 °FLight rain. Passing clouds.16 mph81%29.59 "HgN/A
2:20 am45 °FLight rain. Passing clouds.15 mph87%29.59 "HgN/A
1:50 am45 °FLight rain. Passing clouds.17 mph87%29.59 "HgN/A
1:20 am43 °FLight rain. Passing clouds.16 mph93%29.59 "HgN/A
12:50 am43 °FLight rain. Clear.15 mph93%29.59 "HgN/A
12:20 am43 °FLight rain. Clear.16 mph93%29.59 "HgN/A
Weather by CustomWeather, © 2017

See weather overviewHow to use our weather pages